Location: Piotrkow Trybunalski
(51.4000°N, 19.6830°E)
Time: 23:58:20
(UTC+01:00)

A-11 Canister half - Pass Details

Date: 19 December 2023
Orbit: 1512 x 1687 km, 47.2° (Epoch: 23 February)

Event Time Altitude Azimuth Distance (km) Brightness Sun altitude
Rises 19:10:49 0° 208° (SSW) 4,646 11.8 -32.4°
Reaches altitude 10° 19:14:12 10° 199° (SSW) 3,676 11.1 -32.9°
Enters shadow 19:19:18 28° 169° (S) 2,578 10.0 -33.7°
